Regional Weather Roundup
Issued by NWS New Orleans/Baton Rouge, LA

Home | Current Version | Previous Version | Text Only | Print | Product List | Glossary On
Versions: 1 2 3 4 5 6 7 8 9 10 11 12 13 14 15 16 17 18 19 20 21 22 23 24 25 26 27
000
ASUS44 KLIX 302212
RWRLIX
NEW ORLEANS REGIONAL WEATHER ROUNDUP
NATIONAL WEATHER SERVICE NEW ORLEANS LA
500 PM CDT MON MAY 30 2016

NOTE: "FAIR" INDICATES FEW OR NO CLOUDS BELOW 12,000 FEET WITH NO
      SIGNIFICANT WEATHER AND/OR OBSTRUCTIONS TO VISIBILITY.
      SKY/WX - SKY CONDITION AND SIGNIFICANT WEATHER.
      TMP - AIR TEMPERATURE.     DP    - DEWPOINT TEMPERATURE.
      RH  - RELATIVE HUMIDITY.   PRES  - PRESSURE.
      HI  - HEAT INDEX.          WCI   - WIND CHILL INDEX.

*  THESE STATIONS ARE NOT NWS OR FAA STATIONS AND ARE NOT UNDER
   NWS QUALITY CONTROL.

LAZ038-040-048-061>063-065>067-069-302300-
SOUTHEAST LOUISIANA

CITY           SKY/WX    TMP DP  RH WIND       PRES   REMARKS
N.O. AUDUBON   NOT AVBL
N.O. INTL ARPT CLOUDY    78  67  68 S5        29.95F THUNDER
N.O. LAKEFRONT MOSUNNY   85  66  53 S7        29.94F
N.O. DOWNTOWN*   N/A     83  70  64 SE5       29.94F
RESERVE*       TSTM      73  69  85 N6        29.96S
SLIDELL        MOSUNNY   88  73  61 SW9       29.94F HX  95
BATON ROUGE    MOSUNNY   90  65  43 S7        29.92F
BOOTHVILLE     MOSUNNY   83  71  67 SW10      29.97F
BELLE CHASSE   PTSUNNY   83  74  74 S7        29.94F
BOGALUSA*        N/A     87  66  50 S7        29.95F
GALLIANO*      PTCLDY    85  69  58 S8        29.96F
NEW ROADS*     MOCLDY    82  68  61 E8        29.92F
GONZALES*      MOCLDY    84  74  71 S3        29.94S
HAMMOND*       MOSUNNY   88  64  45 S14       29.94R
HOUMA*         MOSUNNY   84  72  65 S12       29.95F
PORT FOURCHON* CLEAR     84  70  61 S9        29.97F

$$

MSZ070-080>082-302300-
SOUTHERN MISSISSIPPI

CITY           SKY/WX    TMP DP  RH WIND       PRES   REMARKS
MCCOMB         SUNNY     88  65  46 E7        29.93F
GULFPORT       PTSUNNY   86  67  52 S6        29.95S
BILOXI         PTSUNNY   85  70  61 E15G21    29.96R THUNDER
PASCAGOULA     LGT RAIN  73  69  87 W3        29.95F
STENNIS ARPT*  MOSUNNY   84  64  51 SW5       29.95F

$$

COASTAL OBSERVATIONS
LAKE AND NEARSHORE STATIONS

STATION/POSITION TIME  TEMP    WIND        PRES    WAVE
                       AIR SEA DIR/SP/G            HT/PER
                 (UTC) (F)     (DEG/KT/KT) (MB)    (FT/S)
PASCAGOULA       2100   85     210/ 11/ 13 1014.2
WAVELAND YACHT   2100   83 81  240/  6/  9 1014.6
GRAND ISLE       2100   84 83  200/  6/  9 1015.3
SOUTHWEST PASS   2100          210/  4/  4   N/A
NEW CANAL        2100   81 83  200/  5/  7 1014.1
SHELL BEACH      2100   82 85  240/  4/  5 1014.8

OFFSHORE STATIONS

STATION/POSITION TIME  TEMP    WIND        PRES    WAVE
                       AIR SEA DIR/SP/G            HT/PER
                 (UTC) (F)     (DEG/KT/KT) (MB)    (FT/S)
64 S DAUPHIN ISL 2100   80 81  250/  6/  8 1015.0

$$





USA.gov is the U.S. government's official web portal to all federal, state and local government web resources and services.